Home   Weather   Winder   Past weeks

Flag for USA Past Weather in Winder, Georgia, USA — Yesterday and Last 2 Weeks

Now
73 °F

Clear.


Feels Like: 75 °F
Forecast: 69 / 87 °F
Wind: No wind

Location: Winder-Barrow Airport

Current Time: Sep 26, 2016 at 3:15:28 AM

Latest Report: Sep 26, 2016 at 2:35 AM


Visibility: 10 mi

Pressure: 30.12 "Hg

Humidity: 74%

Dew Point: 64 °F

Location of WinderLocation

Past Weather in Winder — Graph

°F

Winder Temperature Yesterday

Maximum temperature yesterday: 91 °F (at 1:55 PM)
Minimum temperature yesterday: 68 °F (at 4:15 AM)
Average temperature yesterday: 79 °F

High & Low Weather Summary for the Past Weeks

 TemperatureHumidityPressure
High93 °F (Sep 11, 3:15 PM)94% (Sep 12, 4:15 AM)30.26 "Hg (Sep 12, 4:15 AM)
Low64 °F (Sep 17, 6:55 AM)28% (Sep 14, 3:15 PM)29.97 "Hg (Sep 19, 4:35 PM)
Average78 °F67%30.12 "Hg
* Reported Sep 11 2:15 AM — Sep 26 2:15 AM, Winder, Weather by CustomWeather, © 2016

Note: Actual official high and low records may vary slightly from our data, if they occured in-between our weather recording intervals... More about our weather records

Advertising

Winder Weather History for the Previous 24 Hours

Scroll right to see more
 ConditionsComfort  
Time TempWeatherWind HumidityBarometerVisibility
2:15 AM
Mon, Sep 26
73 °FClear.No wind74%30.13 "Hg10 mi
1:55 AM75 °FPassing clouds.3 mph69%30.13 "Hg10 mi
1:35 AM75 °FOvercast.3 mph69%30.13 "Hg10 mi
1:15 AM75 °FOvercast.3 mph69%30.13 "Hg10 mi
12:55 AM73 °FPassing clouds.3 mph74%30.13 "Hg10 mi
12:35 AM75 °FClear.No wind69%30.13 "Hg10 mi
12:15 AM75 °FClear.No wind69%30.11 "Hg10 mi
11:55 PM
Sun, Sep 25
75 °FClear.No wind69%30.11 "Hg10 mi
11:35 PM75 °FClear.No wind69%30.10 "Hg10 mi
11:15 PM77 °FClear.No wind65%30.10 "Hg10 mi
10:55 PM77 °FClear.No wind65%30.10 "Hg10 mi
10:15 PM79 °FClear.No wind58%30.10 "Hg10 mi
9:55 PM79 °FClear.No wind58%30.10 "Hg10 mi
9:15 PM81 °FClear.3 mph58%30.10 "Hg10 mi
8:55 PM81 °FClear.No wind58%30.09 "Hg10 mi
8:35 PM81 °FClear.No wind58%30.08 "Hg10 mi
8:15 PM82 °FClear.No wind55%30.08 "Hg10 mi
7:55 PM82 °FClear.3 mph55%30.07 "Hg10 mi
7:35 PM82 °FClear.No wind55%30.06 "Hg10 mi
7:15 PM86 °FSunny.No wind46%30.06 "Hg10 mi
6:55 PM90 °FSunny.No wind38%30.06 "Hg10 mi
6:35 PM90 °FSunny.No wind38%30.05 "Hg10 mi
6:15 PM91 °FSunny.No wind34%30.06 "Hg10 mi
5:55 PM91 °FSunny.No wind34%30.05 "Hg10 mi
5:15 PM91 °FSunny.No wind34%30.05 "Hg10 mi
4:55 PM91 °FSunny.No wind34%30.05 "Hg10 mi
4:15 PM91 °FSunny.No wind34%30.07 "Hg10 mi
3:55 PM91 °FSunny.No wind34%30.07 "Hg10 mi
3:15 PM91 °FScattered clouds.No wind34%30.09 "Hg10 mi
2:55 PM90 °FScattered clouds.No wind36%30.09 "Hg10 mi
2:35 PM91 °FScattered clouds.5 mph36%30.10 "Hg10 mi
2:15 PM91 °FSunny.No wind34%30.10 "Hg10 mi
1:55 PM91 °FSunny.3 mph36%30.11 "Hg10 mi
1:35 PM90 °FSunny.No wind38%30.13 "Hg10 mi
1:15 PM90 °FSunny.No wind38%30.13 "Hg10 mi
12:55 PM90 °FSunny.No wind41%30.14 "Hg10 mi
12:35 PM88 °FSunny.No wind38%30.14 "Hg10 mi
12:15 PM88 °FSunny.No wind40%30.15 "Hg10 mi
11:55 AM86 °FSunny.No wind55%30.15 "Hg10 mi
11:35 AM84 °FSunny.No wind55%30.15 "Hg10 mi
11:15 AM82 °FSunny.No wind58%30.16 "Hg10 mi
10:55 AM82 °FSunny.No wind58%30.16 "Hg10 mi
10:35 AM81 °FSunny.No wind62%30.17 "Hg10 mi
10:15 AM79 °FSunny.No wind61%30.17 "Hg10 mi
9:55 AM77 °FSunny.No wind65%30.16 "Hg10 mi
9:35 AM75 °FSunny.No wind69%30.16 "Hg10 mi
9:15 AM73 °FSunny.No wind74%30.16 "Hg10 mi
8:55 AM72 °FSunny.No wind73%30.15 "Hg10 mi
8:35 AM72 °FSunny.No wind73%30.15 "Hg10 mi
8:15 AM70 °FSunny.No wind83%30.15 "Hg10 mi
7:55 AM68 °FSunny.No wind83%30.15 "Hg10 mi
7:35 AM68 °FSunny.No wind88%30.14 "Hg10 mi
7:15 AM68 °FClear.No wind88%30.14 "Hg10 mi
6:55 AM68 °FClear.No wind83%30.14 "Hg10 mi
6:35 AM68 °FClear.No wind88%30.13 "Hg10 mi
6:15 AM68 °FClear.No wind88%30.13 "Hg10 mi
5:55 AM68 °FClear.No wind88%30.13 "Hg10 mi
5:15 AM70 °FClear.No wind83%30.12 "Hg10 mi
4:55 AM68 °FClear.No wind88%30.11 "Hg10 mi
4:35 AM70 °FClear.No wind83%30.10 "Hg10 mi
4:15 AM68 °FClear.No wind88%30.10 "Hg10 mi
3:55 AM70 °FClear.No wind78%30.10 "Hg10 mi
3:35 AM70 °FClear.No wind78%30.10 "Hg10 mi
3:15 AM70 °FClear.No wind78%30.10 "Hg10 mi
Weather by CustomWeather, © 2016

See weather overviewHow to use our weather pages